Regional Weather Roundup
Issued by NWS Little Rock, AR

Home | Current Version | Previous Version | Graphics & Text | Print | Product List | Glossary On
Versions: 1 2 3 4 5 6 7 8 9 10 11 12 13 14 15 16 17 18 19 20 21 22 23 24 25 26 27 28 29 30 31 32
000
ASUS44 KLZK 212205
RWRLZK

WEATHER ROUNDUP FOR ARKANSAS
NATIONAL WEATHER SERVICE LITTLE ROCK AR
500 PM CDT WED JUN 21 2017

NOTE: "FAIR" INDICATES FEW OR NO CLOUDS BELOW 12,000 FEET WITH NO
SIGNIFICANT WEATHER AND/OR OBSTRUCTIONS TO VISIBILITY.

ARZ001-003-010-029-212300-
NORTHWEST ARKANSAS

CITY           SKY/WX    TMP DP  RH WIND       PRES   REMARKS
FAYETTEVILLE   PTSUNNY   83  65  54 SE7       29.94F HX  85
FORT SMITH     CLOUDY    86  67  52 E12       29.89F HX  89
HARRISON       PTSUNNY   83  62  49 E8        29.97F
BENTONVILLE    PTSUNNY   86  63  45 S10       29.95F HX  87
ROGERS         PTSUNNY   85  66  53 SE9       29.95F HX  87
SILOAM SPGS    CLOUDY    84  63  48 SE7       29.92F HX  85
HIGHFILL       CLOUDY    87  65  47 SE12      29.94F HX  89
SPRINGDALE     PTSUNNY   84  64  51 SE8       29.96F HX  86
$$

ARZ004-005-016-212300-
NORTH CENTRAL ARKANSAS

CITY           SKY/WX    TMP DP  RH WIND       PRES   REMARKS
BATESVILLE     CLOUDY    84  66  54 E7        29.93F HX  86
FLIPPIN        CLOUDY   N/A N/A N/A E5        29.92F
MTN HOME       PTSUNNY   82  68  62 SE5       29.95F HX  85
$$

ARZ040-041-212300-
WEST CENTRAL ARKANSAS

CITY           SKY/WX    TMP DP  RH WIND       PRES   REMARKS
MENA           PTSUNNY   86  68  54 E13G18    29.90F HX  89
MOUNT IDA      CLOUDY    84  65  52 VRB6      29.88F HX  86
$$

ARZ009-017-025-026-028-212300-
NORTHEAST ARKANSAS

CITY           SKY/WX    TMP DP  RH WIND       PRES   REMARKS
CORNING        LGT RAIN  86  72  62 E6        29.94F HX  92
JONESBORO      MOSUNNY   89  67  47 SE15      29.92F HX  92
WALNUT RIDGE   CLOUDY    90  63  40 CALM      29.93S HX  90
BLYTHEVILLE    MOSUNNY   89  65  44 SE14G21   29.95F HX  91
NW BLYTHEVILLE PTSUNNY   90  68  48 SE12G21   29.94F HX  93
$$

ARZ022-023-033-042-044-212300-
CENTRAL ARKANSAS

CITY           SKY/WX    TMP DP  RH WIND       PRES   REMARKS
LITTLE ROCK    CLOUDY    84  70  62 E15       29.90F HX  88
N LITTLE ROCK    N/A     83  71  67 E12       29.89F HX  88
JACKSONVILLE   PTSUNNY   85  73  68 E10       29.90F HX  91
CONWAY           N/A     84  70  61 E7        29.88F HX  88
SEARCY         PTSUNNY   86  72  62 E9        29.92F HX  92
HOT SPRINGS    CLOUDY    84  70  62 E15G21    29.89F HX  88
RUSSELLVILLE   CLOUDY    84  67  56 VRB5      29.90F HX  86
CLINTON        FAIR      84  70  61 VRB3      29.92F HX  88
$$

ARZ036-212300-
EAST ARKANSAS

CITY           SKY/WX    TMP DP  RH WIND       PRES   REMARKS
WEST MEMPHIS   CLOUDY    82  71  69 SE17G23   29.93F HX  86
$$

ARZ050-053-066-070-073-212300-
SOUTHWEST ARKANSAS

CITY           SKY/WX    TMP DP  RH WIND       PRES   REMARKS
ARKADELPHIA    CLOUDY    83  73  72 VRB6      29.86F HX  89
CAMDEN         CLOUDY    77  72  83 E7        29.86S
TEXARKANA      CLOUDY    81  70  69 E7G18     29.83F
EL DORADO      CLOUDY    80  71  74 NE16      29.84F
DE QUEEN       CLOUDY    85  69  58 E12       29.83F HX  89
$$

ARZ056-057-069-212300-
SOUTHEAST ARKANSAS

CITY           SKY/WX    TMP DP  RH WIND       PRES   REMARKS
PINE BLUFF     LGT RAIN  80  69  69 E14G28    29.90F
STUTTGART      CLOUDY   N/A N/A N/A E16       29.91F
MONTICELLO     LGT RAIN  75  73  93 E12       29.87F FOG

$$






USA.gov is the U.S. government's official web portal to all federal, state and local government web resources and services.